Bloomington, IL

4:51 PM CST on February 23, 2018 (GMT -0600)
Central Ill Regional

Weather History for KBMI - October, 2012

Change the Weather History Date:

Sunday, October 14, 2012

  Actual Average Record
Temperature  
Mean Temperature 59 °F -  
Max Temperature 70 °F 55 °F 80 °F (2017)
Min Temperature 48 °F 32 °F 32 °F (1978)
Degree Days  
Heating Degree Days 6    
Growing Degree Days 9 (Base 50)    
Moisture  
Dew Point 59 °F    
Average Humidity 93    
Maximum Humidity 100    
Minimum Humidity 68    
Precipitation  
Precipitation 1.03 in - - ()
Sea Level Pressure  
Sea Level Pressure 29.71 in    
Wind  
Wind Speed 21 mph (SW)    
Max Wind Speed 33 mph    
Max Gust Speed 41 mph    
Visibility 6 miles    
Events Rain    
Averages and records for this station are not official NWS values.
T = Trace of Precipitation, MM = Missing Value Source: NWS Daily Summary

Daily Weather History Graph

Daily Weather History Graph

Search for Another Location

Airport or City:

Trip Planner

Search our weather history database for the weather conditions in past years. The results will help you decide how hot, cold, wet, or windy it might be!

Date:

Astronomy

Oct. 14, 2012 Rise Set
Actual Time 7:06 AM CDT 6:16 PM CDT
Civil Twilight 6:38 AM CDT 6:43 PM CDT
Nautical Twilight 6:06 AM CDT 7:15 PM CDT
Astronomical Twilight 5:35 AM CDT 7:46 PM CDT
Moon 6:04 AM CDT (10/14) 5:36 PM CDT (10/14)
Length of Visible Light 12h 05m
Length of Day
11h 10m
Waning Crescent, 1% of the Moon is Illuminated
Oct 14
Waning Crescent
Oct 15
New
Oct 21
First Quarter
Oct 29
Full
Nov 6
Last Quarter

Hourly Weather History & Observations

Time (CDT) Temp. Dew Point Humidity Pressure Visibility Wind Dir Wind Speed Gust Speed Precip Events Conditions
12:11 AM 64.4 °F 64.4 °F 100% 29.81 in 1.8 mi South 18.4 mph - 0.06 in Rain Light Rain
12:17 AM 64.4 °F 64.4 °F 100% 29.81 in 1.5 mi South 21.9 mph - 0.08 in Rain Light Rain
12:22 AM 64.4 °F 64.4 °F 100% 29.81 in 1.0 mi South 24.2 mph - 0.15 in Rain Light Rain
12:30 AM 64.4 °F 64.4 °F 100% 29.81 in 0.8 mi South 21.9 mph - 0.28 in Rain Light Rain
12:36 AM 64.4 °F 64.4 °F 100% 29.80 in 1.2 mi South 18.4 mph - 0.32 in Rain Light Rain
12:43 AM 64.4 °F 64.4 °F 100% 29.80 in 1.5 mi South 16.1 mph - 0.37 in Rain Light Rain
12:56 AM 63.9 °F 63.9 °F 100% 29.78 in 2.0 mi South 16.1 mph - 0.43 in Rain Light Rain
1:09 AM 64.4 °F 64.4 °F 100% 29.78 in 2.5 mi South 19.6 mph - 0.02 in Rain Light Rain
1:15 AM 64.4 °F 64.4 °F 100% 29.78 in 1.2 mi South 18.4 mph - 0.08 in Rain Light Rain
1:24 AM 64.4 °F 64.4 °F 100% 29.78 in 1.0 mi South 16.1 mph - 0.17 in Rain Light Rain
1:38 AM 64.4 °F 64.4 °F 100% 29.78 in 1.0 mi South 15.0 mph - 0.35 in Rain Light Rain
1:48 AM 64.4 °F 64.4 °F 100% 29.77 in 1.5 mi South 17.3 mph - 0.40 in Rain Light Rain
1:56 AM 63.9 °F 63.9 °F 100% 29.76 in 1.8 mi South 18.4 mph - 0.44 in Rain Light Rain
2:05 AM 64.4 °F 64.4 °F 100% 29.76 in 1.2 mi South 18.4 mph - 0.05 in Rain Light Rain
2:09 AM 62.6 °F 62.6 °F 100% 29.76 in 1.5 mi South 15.0 mph - 0.07 in Rain Light Rain
2:13 AM 62.6 °F 62.6 °F 100% 29.75 in 2.0 mi South 16.1 mph - 0.07 in Rain Light Rain
2:22 AM 62.6 °F 62.6 °F 100% 29.75 in 5.0 mi South 16.1 mph - 0.07 in Rain Light Rain
2:56 AM 63.9 °F 63.9 °F 100% 29.72 in 6.0 mi South 19.6 mph - 0.08 in Rain Light Rain
3:19 AM 64.4 °F 64.4 °F 100% 29.72 in 5.0 mi South 20.7 mph - 0.01 in Rain Light Rain
3:29 AM 64.4 °F 64.4 °F 100% 29.71 in 3.0 mi South 24.2 mph - 0.03 in Rain Light Rain
3:56 AM 63.0 °F 63.0 °F 100% 29.65 in 9.0 mi South 27.6 mph - 0.03 in Rain Light Rain
4:56 AM 63.9 °F 63.9 °F 100% 29.65 in 9.0 mi South 26.5 mph - 0.01 in Rain Light Rain
5:56 AM 63.0 °F 63.0 °F 100% 29.64 in 10.0 mi SSW 23.0 mph - 0.00 in   Mostly Cloudy
6:56 AM 61.9 °F 61.9 °F 100% 29.60 in 10.0 mi South 18.4 mph - 0.00 in   Partly Cloudy
7:56 AM 63.0 °F 61.9 °F 96% 29.62 in 10.0 mi SSW 20.7 mph - N/A   Mostly Cloudy
8:32 AM 62.6 °F 62.6 °F 100% 29.63 in 10.0 mi SSW 21.9 mph - N/A   Mostly Cloudy
8:56 AM 63.9 °F 61.9 °F 93% 29.60 in 10.0 mi SSW 29.9 mph - N/A   Mostly Cloudy
9:19 AM 64.4 °F 62.6 °F 94% 29.62 in 10.0 mi SSW 31.1 mph - N/A   Overcast
9:56 AM 63.0 °F 63.0 °F 100% 29.60 in 6.0 mi SSW 29.9 mph - 0.00 in Rain Light Rain
10:56 AM 65.8 °F 61.9 °F 87% 29.59 in 10.0 mi SSW 28.8 mph 40.3 mph 0.00 in   Overcast
11:56 AM 66.9 °F 61.9 °F 84% 29.57 in 10.0 mi SSW 27.6 mph 32.2 mph N/A   Mostly Cloudy
12:56 PM 68.0 °F 59.9 °F 75% 29.55 in 10.0 mi SW 32.2 mph - N/A   Mostly Cloudy
1:56 PM 70.0 °F 59.0 °F 68% 29.52 in 10.0 mi SW 27.6 mph - N/A   Mostly Cloudy
2:37 PM 68.0 °F 57.2 °F 68% 29.55 in 2.0 mi SW 33.4 mph 41.4 mph 0.00 in Rain Rain
2:49 PM 62.6 °F 60.8 °F 94% 29.57 in 2.5 mi WSW 26.5 mph - 0.01 in Rain Light Rain
2:56 PM 61.0 °F 59.9 °F 96% 29.57 in 4.0 mi WSW 23.0 mph 40.3 mph 0.03 in Rain Rain
3:08 PM 62.6 °F 60.8 °F 94% 29.58 in 6.0 mi WSW 23.0 mph - 0.01 in Rain Light Rain
3:12 PM 62.6 °F 60.8 °F 94% 29.58 in 6.0 mi WSW 21.9 mph - 0.01 in   Overcast
3:56 PM 59.9 °F 54.9 °F 83% 29.61 in 10.0 mi West 25.3 mph - 0.01 in   Mostly Cloudy
4:56 PM 55.9 °F 52.0 °F 87% 29.67 in 10.0 mi West 20.7 mph 34.5 mph N/A   Overcast
5:56 PM 54.0 °F 50.0 °F 86% 29.72 in 10.0 mi West 26.5 mph - N/A   Overcast
6:56 PM 52.9 °F 48.9 °F 86% 29.76 in 10.0 mi WNW 25.3 mph - N/A   Overcast
7:37 PM 53.6 °F 48.2 °F 82% 29.80 in 10.0 mi WNW 20.7 mph - N/A   Overcast
7:56 PM 52.9 °F 47.8 °F 83% 29.80 in 10.0 mi WNW 21.9 mph 28.8 mph N/A   Overcast
8:17 PM 51.8 °F 48.2 °F 88% 29.82 in 10.0 mi WNW 17.3 mph - N/A   Overcast
8:56 PM 52.0 °F 46.9 °F 83% 29.82 in 10.0 mi WNW 18.4 mph - N/A   Overcast
9:09 PM 51.8 °F 46.4 °F 82% 29.83 in 10.0 mi WNW 19.6 mph - N/A   Overcast
9:56 PM 50.0 °F 45.0 °F 83% 29.85 in 10.0 mi WNW 16.1 mph - N/A   Mostly Cloudy
10:32 PM 48.2 °F 44.6 °F 87% 29.86 in 10.0 mi WNW 15.0 mph - N/A   Scattered Clouds
10:56 PM 48.9 °F 43.0 °F 80% 29.86 in 10.0 mi WNW 16.1 mph - N/A   Clear